Location: Barcelona
(41.3829°N, 2.1774°E)
Time: 11:07:01
(UTC+00:00)

ISS - Pass Details

Date: 01 May 2025
Orbit: 416 x 419 km, 51.6° (Epoch: 14 May)

Event Time Altitude Azimuth Distance (km) Brightness Sun altitude
Exits shadow 03:20:11 - 306° (NW) 2,099 -0.4 -15.3°
Reaches altitude 10° 03:22:16 10° 327° (NNW) 1,496 -0.9 -15.0°
Maximum altitude 03:24:11 14° 2° (N) 1,262 -0.8 -14.7°
Drops below altitude 10° 03:26:06 10° 37° (NE) 1,497 0.3 -14.4°
Sets 03:28:57 0° 63° (ENE) 2,361 1.9 -14.0°
